Location: Tel Aviv
(32.0670°N, 34.7670°E)
Time: 07:15:14
(UTC+02:00)

Vanguard 2 Rocket - Visible Passes

Search period start: 29 November 2023 00:00
Search period end: 09 December 2023 00:00
Orbit: 553 x 3312 km, 32.9° (Epoch: 28 November)

Date Brightness Start Highest point End Pass type
(mag) Time Alt. Az. Time Alt. Az. Time Alt. Az.
29 Nov 9.5 17:12:21 10° W 17:33:03 89° N 17:46:19 17° E visible
29 Nov 8.6 19:32:16 10° W 19:50:59 86° SSW 19:51:58 80° SE visible
29 Nov 10.2 21:52:26 10° WNW 21:57:36 23° W 21:57:36 23° W visible
30 Nov 9.0 18:27:08 10° W 18:47:17 88° N 18:53:56 42° E visible
30 Nov 9.3 20:47:15 10° WNW 20:59:34 48° W 20:59:34 48° W visible
01 Dec 9.4 17:22:18 10° W 17:43:01 87° N 17:55:56 18° E visible
01 Dec 8.7 19:42:06 10° WNW 20:00:47 77° SSW 20:01:35 75° S visible
01 Dec 10.3 22:02:39 10° W 22:07:13 20° W 22:07:13 20° W visible
02 Dec 9.0 18:37:03 10° W 18:57:12 86° SSW 19:03:38 44° ESE visible
02 Dec 9.5 20:57:09 10° WNW 21:09:17 42° WSW 21:09:17 42° WSW visible
03 Dec 9.4 17:32:15 10° W 17:52:59 89° N 18:05:46 19° E visible
03 Dec 8.9 19:51:55 10° WNW 20:10:22 66° SSW 20:11:25 64° S visible
03 Dec 10.5 22:13:24 10° W 22:17:04 16° W 22:17:04 16° W visible
04 Dec 9.7 16:27:54 10° W 16:48:18 87° N 17:05:37 10° E visible
04 Dec 9.1 18:46:53 10° WNW 19:06:58 78° SSW 19:13:37 42° ESE visible
04 Dec 9.7 21:07:16 10° WNW 21:19:17 36° WSW 21:19:17 36° WSW visible
05 Dec 9.4 17:42:10 10° W 18:02:52 87° SSW 18:15:55 19° ESE visible
05 Dec 9.2 20:01:46 10° WNW 20:19:41 54° SW 20:21:35 51° SSW visible
05 Dec 10.6 22:25:22 10° W 22:27:16 12° WSW 22:27:16 12° WSW visible
06 Dec 9.7 16:37:52 10° W 16:58:14 88° N 17:15:38 10° E visible
06 Dec 9.4 18:56:42 10° WNW 19:16:30 68° SSW 19:24:00 37° SE visible
06 Dec 10.0 21:17:51 10° W 21:29:41 28° SW 21:29:41 28° SW visible
07 Dec 9.5 17:52:02 10° WNW 18:12:36 79° SSW 18:26:31 16° ESE visible
07 Dec 9.5 20:11:50 10° WNW 20:28:44 42° SW 20:32:13 38° SSW visible
08 Dec 9.7 16:47:49 10° W 17:08:05 87° SSW 17:25:36 10° ESE visible
08 Dec 9.6 19:06:34 10° WNW 19:25:47 56° SSW 19:34:53 27° SSE visible
08 Dec 10.3 21:29:23 10° W 21:39:43 19° SW 21:40:36 19° SW visible
